星链-32337 (STARLINK-32337)

导读

STARLINK-32337是美国太空探索技术公司星链互联网星座中的一颗卫星,于2024年10月23日发射入轨,属于Starlink项目低轨卫星组网批次卫星,承担全球低延迟宽带互联网覆盖服务的组网任务。作为星链星座扩容部署的组成部分,该卫星运行在近地轨道,进一步扩充了星座的服务覆盖范围与容量。

Basic Information
目录编号:
61643
目录名称:
STARLINK-32337
国际标识:
2024-191Y
轨道中心:
EARTH
卫星名称:
星链-32337
卫星全名:
星链-32337 (STARLINK-32337)
卫星状态:
在轨 (已飞行681 天)
发射日期:
2024-10-23 UTC
国别 :
美国 (US)
星等 :
--
Orbit Information
数据来源 国际轨道数据
星历时间: 2026-09-03T23:33:02+0800
16小时前
查看轨道信息
半长轴: 6862.356km
偏心率: 0.0001527
轨道倾角: 43.000°
近地点辐角 217.947°
升交点赤经 229.415°
平近点角 142.127°
近地点: 483.171km
远地点: 485.267km
周期: 94.291分钟
每日圈数: 15.271896
Detailed Information
固有亮度:
5
最大亮度:
2.5
卫星平台:
Starlink V1.0
覆盖范围:
全球
运营商:
太空探索技术公司
运营商所在国:
美国
制造商(研发单位):
太空探索技术公司
制造商所在国:
美国
使用方式:
暂无
Satellite Introduction
Starlink 计划是 SpaceX 推出的全球卫星互联网项目,通过发射低轨道卫星,为全球尤其是偏远地区提供高速、低延迟的互联网服务。自 2019 年起,Starlink 已部署数千颗卫星,旨在缩小全球数字鸿沟,推动互联网普及。该项目还为军事、航空等行业提供通信支持,带来广泛经济效益。
2D Orbit Map
3D Orbit Map
Orbit Altitude Analysis Chart
Orbit Inclination Analysis Chart
Orbit Comprehensive Analysis Chart
View Comprehensive Chart
Conjunction Data List
Event ID Objects TCA Miss Dist (km) Collision Risk Probability Collision Risk Index (CRI) Action
CDM_260904-160505-940506-164321
2026-09-04T
16:05:15+0000
0.387 km
远距离
2.470443E-4 高风险 0.83
CDM_260901-130205-650506-164321
2026-09-01T
13:02:20+0000
0.444 km
远距离
1.445606E-4 高风险 0.78
CDM_260905-065905-940506-164321
2026-09-05T
06:59:41+0000
1.111 km
极远距离
1.207564E-5 中风险 0.57
CDM_260904-143105-940506-164321
2026-09-04T
14:31:05+0000
1.434 km
极远距离
5.067651E-6 低风险 0.49
CDM_260901-172805-598706-164321
2026-09-01T
17:28:56+0000
1.524 km
极远距离
4.089158E-6 低风险 0.47
CDM_260905-124705-653706-164321
2026-09-05T
12:47:06+0000
1.484 km
极远距离
3.842017E-6 低风险 0.47
CDM_260905-052505-940506-164321
2026-09-05T
05:25:32+0000
1.595 km
极远距离
3.621779E-6 低风险 0.46
CDM_260904-172106-164306-959721
2026-09-04T
17:21:00+0000
1.996 km
极远距离
2.377578E-6 低风险 0.43
CDM_260904-173905-940506-164321
2026-09-04T
17:39:24+0000
2.222 km
极远距离
1.517849E-6 低风险 0.39
CDM_260905-142105-653706-164321
2026-09-05T
14:21:16+0000
2.511 km
极远距离
1.042604E-6 低风险 0.35